Погода в Похвистнево

Россия / Орловская область     52°30′46″N   35°36′10″E
темп.,
°C
ветер,
м/с
пор.,
м/с
влажн.,
%
обл.,
%
осадки,
мм/ч
давл.,
гПа
погр.,
м
4 марта, чт
чт400:00−2з5119333 0.0 1017317
03:00−2зюз6129116 0.0 1016282
06:00−3зюз613920 0.0 1013310
09:00−1зюз8168115 0.0 1010515
12:00+1зюз814841 0.0 1008653
15:00+3зюз814865 0.0 1005690
18:00+2зюз6138955 0.0 1004522
21:00+2з4109377 0.1 1003364
5 марта, пт
пт500:000зсз3796100 0.1 1004450
03:00−1зсз4796100 0.1 1005351
06:00−1сз3597100 0.3 1007310
09:00−2ссв2391100 0.6 1008243
12:00−1с2375100 0.0 1009621
15:000с3373100 0.1 1010721
18:00−1св2281100 0.1 101178
21:00−2ссв2284100 0.1 101449
6 марта, сб
сб600:00−3св238998 0.0 1015165
03:00−4ссв128583 0.0 101673
06:00−5юв01841 0.0 101521
09:00−4юз248719 0.0 1016302
12:00−4зсз578298 0.2 1016603
15:00−3зсз456599 0.3 1017927
18:00−4ссз798159 0.1 1018765
21:00−5ссз587362 0.2 1020875
7 марта, вс
вс700:00−6з48740 0.0 1020537
03:00−6юз611710 0.0 1018480
06:00−6юз8166544 0.0 1015666
09:00−4юз11186473 0.0 1012901
12:00−2зюз121973100 0.1 10081248
15:00−1зюз121970100 0.1 10041462
18:000зюз11197499 0.0 10021217
21:00−2сз8129496 1.5 1004912
8 марта, пн
пн800:00−3з51073100 0.7 10041019
03:00−5зсз7137581 0.7 10051047
06:00−6зсз6127538 0.0 10061047
09:00−6зсз7107560 0.0 10081152
12:00−5сз6870100 0.1 10101176
15:00−5сз5864100 0.1 10111299
18:00−6сз5769100 0.1 10121010
21:00−6сз3675100 0.1 1014832